Tracking 30692 objects as of 16-Jun-2025
HD Live streaming from Space Station
objects crossing your sky now

ONEWEB-0665

Track ONEWEB-0665 now!
10-day predictions
ONEWEB-0665 is classified as:


NORAD ID: 55825
Int'l Code: 2023-029AF
Perigee: 1,211.5 km
Apogee: 1,214.3 km
Inclination: 87.9 °
Period: 109.5 minutes
Semi major axis: 7583 km
RCS: Unknown
Launch date: March 9, 2023
Source: United Kingdom (UK)
Launch site: AIR FORCE EASTERN TEST RANGE (AFETR)
Your satellite tracking list
Your tracking list is empty




NASA's NSSDC Master Catalog

Two Line Element Set (TLE):
1 55825U 23029AF  25166.87957957 -.00000186  00000-0 -53717-3 0  9991
2 55825  87.9035   2.6045 0001836  97.5323 262.6015 13.14501164111284
Source of the keplerian elements: AFSPC